Kaltag, AK

5:39 AM AKDT on April 27, 2017 (GMT -0800)
Kaltag

Weather History for PAKV - September, 2013

Change the Weather History Date:

Monday, September 9, 2013

  Actual Average (PAGA) Record (PAGA)
Temperature  
Mean Temperature 50 °F -  
Max Temperature 57 °F 53 °F 69 °F (1965)
Min Temperature 42 °F 38 °F 17 °F (2000)
Degree Days  
Heating Degree Days 16    
Moisture  
Dew Point 45 °F    
Average Humidity 85    
Maximum Humidity 93    
Minimum Humidity 72    
Precipitation  
Precipitation 0.00 in - - ()
Sea Level Pressure  
Sea Level Pressure 29.71 in    
Wind  
Wind Speed 3 mph (NE)    
Max Wind Speed 12 mph    
Max Gust Speed 21 mph    
Visibility 10 miles    
Events      
Averages and records for this station are not official NWS values.
T = Trace of Precipitation, MM = Missing Value Source: NWS Daily Summary

Daily Weather History Graph

Daily Weather History Graph

Search for Another Location

Airport or City:

Trip Planner

Search our weather history database for the weather conditions in past years. The results will help you decide how hot, cold, wet, or windy it might be!

Date:

Astronomy

Sep. 09, 2013 Rise Set
Actual Time 7:41 AM AKDT 9:20 PM AKDT
Civil Twilight 6:50 AM AKDT 10:10 PM AKDT
Nautical Twilight 5:44 AM AKDT 11:16 PM AKDT
Astronomical Twilight 4:13 AM AKDT 12:43 AM AKDT
Moon 2:12 PM AKDT (9/9) 9:44 PM AKDT (9/9)
Length of Visible Light 15h 20m
Length of Day
13h 39m
Waxing Crescent, 20% of the Moon is Illuminated
Sep 9
Waxing Crescent
Sep 12
First Quarter
Sep 19
Full
Sep 26
Last Quarter
Oct 4
New

Hourly Weather History & Observations

Time (AKDT) Temp. Dew Point Humidity Pressure Visibility Wind Dir Wind Speed Gust Speed Precip Events Conditions
12:53 AM 46.0 °F 43.0 °F 89% 29.76 in 10.0 mi Calm Calm - N/A   Overcast
1:53 AM 45.0 °F 43.0 °F 93% 29.76 in 10.0 mi Calm Calm - N/A   Overcast
2:53 AM 45.0 °F 43.0 °F 93% 29.76 in 10.0 mi Calm Calm - N/A   Overcast
3:53 AM 44.1 °F 42.1 °F 93% 29.76 in 10.0 mi Calm Calm - N/A   Overcast
4:53 AM 46.9 °F 44.1 °F 90% 29.76 in 10.0 mi Calm Calm - N/A   Overcast
5:53 AM 45.0 °F 43.0 °F 93% 29.76 in 10.0 mi Calm Calm - N/A   Overcast
6:53 AM 45.0 °F 43.0 °F 93% 29.75 in 10.0 mi Calm Calm - N/A   Mostly Cloudy
7:53 AM 43.0 °F 41.0 °F 93% 29.75 in 10.0 mi Calm Calm - N/A   Mostly Cloudy
8:08 AM 42.8 °F 41.0 °F 93% 29.74 in 10.0 mi Calm Calm - N/A   Overcast
8:53 AM 46.0 °F 44.1 °F 93% 29.74 in 10.0 mi Calm Calm - N/A   Overcast
9:36 AM 48.2 °F 44.6 °F 87% 29.74 in 10.0 mi ENE 6.9 mph - N/A   Overcast
9:53 AM 48.9 °F 45.0 °F 86% 29.74 in 10.0 mi NE 5.8 mph - N/A   Overcast
10:53 AM 51.1 °F 46.0 °F 83% 29.73 in 10.0 mi ENE 10.4 mph - N/A   Overcast
11:53 AM 50.0 °F 46.0 °F 86% 29.72 in 10.0 mi NE 8.1 mph - N/A   Overcast
12:21 PM 51.8 °F 46.4 °F 82% 29.71 in 10.0 mi NE 9.2 mph - N/A   Overcast
12:53 PM 51.1 °F 46.0 °F 83% 29.71 in 10.0 mi NE 8.1 mph - N/A   Overcast
1:53 PM 53.1 °F 46.9 °F 80% 29.70 in 10.0 mi NE 9.2 mph - N/A   Overcast
2:53 PM 54.0 °F 46.9 °F 77% 29.68 in 10.0 mi NE 9.2 mph - N/A   Clear
3:53 PM 57.0 °F 48.0 °F 72% 29.67 in 10.0 mi NE 11.5 mph 18.4 mph N/A   Scattered Clouds
4:53 PM 55.0 °F 46.9 °F 74% 29.66 in 10.0 mi NE 11.5 mph 20.7 mph N/A   Overcast
5:53 PM 55.0 °F 48.0 °F 77% 29.65 in 10.0 mi NE 8.1 mph 16.1 mph N/A   Overcast
6:53 PM 55.0 °F 48.0 °F 77% 29.64 in 10.0 mi NE 6.9 mph - N/A   Overcast
7:53 PM 54.0 °F 48.0 °F 80% 29.64 in 10.0 mi NE 9.2 mph - N/A   Overcast
8:53 PM 53.1 °F 46.9 °F 80% 29.64 in 10.0 mi NE 6.9 mph - N/A   Overcast
9:53 PM 52.0 °F 46.9 °F 83% 29.63 in 10.0 mi NNE 6.9 mph - 0.00 in   Overcast
10:53 PM 52.0 °F 46.9 °F 83% 29.63 in 10.0 mi Calm Calm - N/A   Overcast
11:53 PM 50.0 °F 46.9 °F 89% 29.63 in 10.0 mi Calm Calm - N/A   Overcast